Weather History for Chapel Hill, NC

Change the Weather History Date:

Sunday, November 18, 2012

  Actual Average Record
Temperature  
Mean Temperature 50 °F -  
Max Temperature 55 °F 60 °F 80 °F (1962)
Min Temperature 44 °F 35 °F 21 °F (1959)
Degree Days  
Heating Degree Days 16    
Moisture  
Dew Point 41 °F    
Average Humidity 69    
Maximum Humidity 80    
Minimum Humidity 62    
Precipitation  
Precipitation 0.00 in - - ()
Sea Level Pressure  
Sea Level Pressure 30.42 in    
Wind  
Wind Speed 9 mph (NNE)    
Max Wind Speed 14 mph    
Max Gust Speed 25 mph    
Visibility 10 miles    
Events      
Averages and records for this station are not official NWS values.
T = Trace of Precipitation, MM = Missing Value Source: NWS Daily Summary

Daily Weather History Graph

Daily Weather History Graph

Search for Another Location

Airport:

Trip Planner

Search our weather history database for the weather conditions in past years. The results will help you decide how hot, cold, wet, or windy it might be!

Date:

Astronomy

Nov. 18, 2012 Rise Set
Actual Time 6:56 AM EST 5:06 PM EST
Civil Twilight 6:28 AM EST 5:34 PM EST
Nautical Twilight 5:57 AM EST 6:05 PM EST
Astronomical Twilight 5:27 AM EST 6:35 PM EST
Moon 11:23 AM EST (11/18) 10:21 PM EST (11/18)
Length of Visible Light 11h 05m
Length of Day
10h 10m
Waxing Crescent, 30% of the Moon is Illuminated
Nov 18
Waxing Crescent
Nov 20
First Quarter
Nov 28
Full
Dec 6
Last Quarter
Dec 13
New

Hourly Weather History & Observations

Time (EST) Temp. Windchill Dew Point Humidity Pressure Visibility Wind Dir Wind Speed Gust Speed Precip Events Conditions
12:25 AM 44.6 °F 40.7 °F 35.6 °F 71% 30.47 in 10.0 mi NNE 6.9 mph - N/A   Mostly Cloudy
12:56 AM 45.0 °F 39.7 °F 35.1 °F 68% 30.47 in 10.0 mi NNE 10.4 mph - N/A   Overcast
1:56 AM 45.0 °F 40.6 °F 37.0 °F 74% 30.45 in 10.0 mi NNE 8.1 mph 19.6 mph N/A   Overcast
2:56 AM 45.0 °F 39.7 °F 37.9 °F 76% 30.44 in 10.0 mi NNE 10.4 mph 18.4 mph N/A   Overcast
3:56 AM 45.0 °F 40.6 °F 37.9 °F 76% 30.44 in 10.0 mi NNE 8.1 mph - N/A   Overcast
4:56 AM 45.0 °F 40.6 °F 39.0 °F 80% 30.45 in 10.0 mi North 8.1 mph - N/A   Overcast
5:56 AM 45.0 °F 40.6 °F 39.0 °F 80% 30.45 in 10.0 mi North 8.1 mph - N/A   Overcast
6:56 AM 46.0 °F 41.4 °F 39.9 °F 79% 30.45 in 10.0 mi NNE 9.2 mph - N/A   Overcast
7:56 AM 46.0 °F 41.9 °F 39.9 °F 79% 30.47 in 10.0 mi NNE 8.1 mph 18.4 mph N/A   Overcast
8:56 AM 46.9 °F - 41.0 °F 80% 30.47 in 10.0 mi NNE 9.2 mph - N/A   Overcast
9:56 AM 48.0 °F - 41.0 °F 77% 30.47 in 10.0 mi NNE 9.2 mph - N/A   Overcast
10:27 AM 48.2 °F - 41.0 °F 76% 30.46 in 10.0 mi NNE 9.2 mph 18.4 mph N/A   Overcast
10:56 AM 51.1 °F - 41.0 °F 68% 30.46 in 10.0 mi NNE 9.2 mph 17.3 mph N/A   Mostly Cloudy
11:56 AM 53.1 °F - 41.0 °F 64% 30.43 in 10.0 mi NNE 9.2 mph - N/A   Scattered Clouds
12:12 PM 53.6 °F - 41.0 °F 62% 30.42 in 10.0 mi NE 10.4 mph 18.4 mph N/A   Mostly Cloudy
12:20 PM 53.6 °F - 42.8 °F 67% 30.42 in 10.0 mi NE 13.8 mph 18.4 mph N/A   Scattered Clouds
12:56 PM 55.0 °F - 42.1 °F 62% 30.40 in 10.0 mi NE 12.7 mph 25.3 mph N/A   Partly Cloudy
1:56 PM 55.0 °F - 42.1 °F 62% 30.39 in 10.0 mi NNE 12.7 mph 18.4 mph N/A   Mostly Cloudy
2:12 PM 55.4 °F - 42.8 °F 63% 30.39 in 10.0 mi North 10.4 mph 21.9 mph N/A   Mostly Cloudy
2:56 PM 55.0 °F - 42.1 °F 62% 30.37 in 10.0 mi NNE 13.8 mph 20.7 mph N/A   Overcast
3:21 PM 53.6 °F - 42.8 °F 67% 30.37 in 10.0 mi North 9.2 mph 17.3 mph N/A   Mostly Cloudy
3:56 PM 54.0 °F - 42.1 °F 64% 30.37 in 10.0 mi NNE 9.2 mph - N/A   Partly Cloudy
4:40 PM 53.6 °F - 42.8 °F 67% 30.38 in 10.0 mi NNE 11.5 mph 17.3 mph N/A   Overcast
4:56 PM 54.0 °F - 42.1 °F 64% 30.38 in 10.0 mi NNE 9.2 mph 18.4 mph N/A   Overcast
5:56 PM 53.1 °F - 41.0 °F 64% 30.38 in 10.0 mi North 6.9 mph - N/A   Overcast
6:56 PM 53.1 °F - 41.0 °F 64% 30.38 in 10.0 mi NNE 10.4 mph 18.4 mph N/A   Overcast
7:56 PM 52.0 °F - 41.0 °F 66% 30.38 in 10.0 mi Variable 6.9 mph - N/A   Overcast
8:56 PM 52.0 °F - 41.0 °F 66% 30.38 in 10.0 mi NNE 10.4 mph 17.3 mph N/A   Overcast
9:08 PM 51.8 °F - 41.0 °F 67% 30.39 in 10.0 mi NNE 11.5 mph 19.6 mph N/A   Overcast
9:56 PM 52.0 °F - 41.0 °F 66% 30.38 in 10.0 mi NNE 10.4 mph 20.7 mph N/A   Overcast
10:56 PM 51.1 °F - 41.0 °F 68% 30.36 in 10.0 mi NNE 9.2 mph 18.4 mph N/A   Overcast
11:56 PM 51.1 °F - 41.0 °F 68% 30.36 in 10.0 mi NNE 9.2 mph 21.9 mph N/A   Overcast